Find Starlink 5050

NORAD ID: 53890 Int'l Des: 2022-119 Owner: SPXS Country: US Constellation: starlink operational
LEOCIRCULAR

当前视图

正在加载3D地球...

About Starlink 5050

Starlink 5050 (NORAD 53890) is a starlink constellation satellite (v1.5) launched Sep 24, 2022 by SPXS of US. It operates in LEO, CIRCULAR orbit with a mass of 305.00 kg.

关于 Starlink 5050

正在加载描述...

即将过境

Passes for default location (London). Set your location on the main map for personalized predictions.

高度历史

Loading altitude history...

两行轨道根数

1 53890U 22119E 26166.42889147 .00000798 00000-0 68269-4 0 9993
2 53890 53.1593 210.0500 0001217 86.2338 273.8792 15.08827130206935
Epoch: Jun 15, 2026 • Age: 12 hours

当前状态

高度 540.7 km
速度 7.60 km/s
星下点 28.29°N, 129.16°E
发射日期 Sep 24, 2022
运行时间 3.7 years
类型 internet

技术详情

分类 Payload
质量 305.00 kg
干质量 290.00 kg
总质量 305.00 kg
长度 0.20 m
直径 2.80 m
跨度 9.00 m
形状 Box + pan
制造商 SPXS
平台类型 Starlink
阶段状态 In Orbit
所有者/国家 SPXS/US

Most Searched